This is the latest recevied weather packets stored in our database for station/object SP3VBV-2. If no packets are shown the sender has not sent any weather packets the latest 10 day(s).
| Time | Temp. | Humidity | Pressure | Rain* | Wind** | Luminosity | Snow |
|---|---|---|---|---|---|---|---|
| 1777892516 | 23.33° C | 39% | 1012.5 hPa | - | - | - | - |
| 1777891916 | 22.78° C | 41% | 1012.3 hPa | - | - | - | - |
| 1777891317 | 22.78° C | 40% | 1012.6 hPa | - | - | - | - |
| 1777890202 | 22.22° C | 41% | 1012.7 hPa | - | - | - | - |
| 1777889524 | 22.78° C | 40% | 1012.8 hPa | - | - | - | - |
| 1777888323 | 22.22° C | 41% | 1012.9 hPa | - | - | - | - |
| 1777887723 | 22.22° C | 42% | 1012.9 hPa | - | - | - | - |
| 1777887123 | 22.22° C | 42% | 1013.1 hPa | - | - | - | - |
| 1777886523 | 22.22° C | 42% | 1013.1 hPa | - | - | - | - |
| 1777885923 | 22.22° C | 42% | 1013.2 hPa | - | - | - | - |
| 1777885323 | 21.67° C | 43% | 1013.4 hPa | - | - | - | - |
| 1777884723 | 21.11° C | 42% | 1013.4 hPa | - | - | - | - |
| 1777884123 | 21.11° C | 43% | 1013.4 hPa | - | - | - | - |
| 1777883523 | 21.11° C | 44% | 1013.4 hPa | - | - | - | - |
| 1777882923 | 20.56° C | 45% | 1013.3 hPa | - | - | - | - |
| 1777882323 | 20° C | 45% | 1013.4 hPa | - | - | - | - |
| 1777881723 | 20° C | 45% | 1013.3 hPa | - | - | - | - |
| 1777881123 | 20° C | 45% | 1013.3 hPa | - | - | - | - |
| 1777880523 | 19.44° C | 45% | 1013.3 hPa | - | - | - | - |
| 1777879923 | 19.44° C | 44% | 1013.5 hPa | - | - | - | - |
| 1777879323 | 19.44° C | 45% | 1013.3 hPa | - | - | - | - |
| 1777878723 | 19.44° C | 44% | 1013.2 hPa | - | - | - | - |
| 1777878123 | 19.44° C | 46% | 1013.3 hPa | - | - | - | - |
| 1777877523 | 18.89° C | 48% | 1013.2 hPa | - | - | - | - |
| 1777876923 | 18.33° C | 49% | 1013.2 hPa | - | - | - | - |
* Rain since midnight (hover to see other rain measurements)
** Current wind speed in m/s (hover to see current wind gust speed)